FW1304 Weather Reports


Display with metric or nautical units.
time (UTC)temp
F
wind
direction
speed
MPH
gust
MPH
rain 1hr
in
rain 24hr
in
rain mn
in
humidity
%
barometer
mb
20221208062325 5 78 0.0 0.0 0.00 0.00 0.00 87 1028.6
20221208061836 5 78 0.0 0.0 0.00 0.00 0.00 87 1028.7
20221208061335 5 78 0.0 0.0 0.00 0.00 0.00 87 1028.8
20221208060828 5 78 0.0 0.0 0.00 0.00 0.00 87 1028.9
20221208060402 5 78 0.0 0.0 0.00 0.00 0.00 87 1029.1
20221208055821 5 78 0.0 0.0 0.00 0.00 0.00 87 1028.9
20221208055325 5 78 0.0 0.0 0.00 0.00 0.00 87 1028.8
20221208054818 5 77 0.0 0.0 0.00 0.00 0.00 86 1028.7
20221208054318 5 77 0.0 0.0 0.00 0.00 0.00 86 1028.7
20221208053819 5 77 0.0 0.0 0.00 0.00 0.00 86 1028.8
20221208053329 5 77 0.0 0.0 0.00 0.00 0.00 86 1028.8
20221208052830 5 77 0.0 0.0 0.00 0.00 0.00 87 1028.9
20221208052322 5 77 0.0 0.0 0.00 0.00 0.00 87 1028.9
20221208051827 5 77 0.0 0.0 0.00 0.00 0.00 87 1028.9
20221208051329 5 77 0.0 0.0 0.00 0.00 0.00 87 1028.9
20221208050822 4 69 0.0 0.0 0.00 0.00 0.00 87 1028.9
20221208050327 4 32 0.0 0.0 0.00 0.00 0.00 86 1029.0
20221208045836 4 32 0.0 0.0 0.00 0.00 0.00 86 1029.0
20221208045320 4 32 0.0 0.0 0.00 0.00 0.00 85 1029.0
20221208044833 4 32 0.0 0.0 0.00 0.00 0.00 85 1029.1
20221208044333 5 32 0.0 0.0 0.00 0.00 0.00 85 1029.1
20221208043817 5 32 0.0 0.0 0.00 0.00 0.00 86 1029.2
20221208043351 5 32 0.0 0.0 0.00 0.00 0.00 86 1029.4
20221208042823 5 32 0.0 0.0 0.00 0.00 0.00 85 1029.6
20221208042337 5 32 0.0 0.0 0.00 0.00 0.00 85 1029.6
20221208041829 5 32 0.0 0.0 0.00 0.00 0.00 85 1029.7
20221208041316 6 32 0.0 0.0 0.00 0.00 0.00 86 1029.7
20221208040830 6 32 0.0 0.0 0.00 0.00 0.00 86 1029.6
20221208040331 6 32 0.0 0.0 0.00 0.00 0.00 86 1029.5
20221208035839 6 32 0.0 0.0 0.00 0.00 0.00 86 1029.5
20221208035351 6 32 0.0 0.0 0.00 0.00 0.00 86 1029.4
20221208034832 6 32 0.0 0.0 0.00 0.00 0.00 87 1029.4
20221208034332 6 32 0.0 0.0 0.00 0.00 0.00 87 1029.4
20221208033825 6 32 0.0 0.0 0.00 0.00 0.00 87 1029.4
20221208033338 6 32 0.0 0.0 0.00 0.00 0.00 87 1029.5
20221208032837 6 32 0.0 0.0 0.00 0.00 0.00 86 1029.4
20221208032322 5 32 0.0 0.0 0.00 0.00 0.00 86 1029.4
20221208031835 5 32 0.0 0.0 0.00 0.00 0.00 85 1029.3
20221208031335 5 32 0.0 0.0 0.00 0.00 0.00 85 1029.3
20221208030819 5 32 0.0 0.0 0.00 0.00 0.00 85 1029.2
20221208030333 5 32 0.0 0.0 0.00 0.00 0.00 84 1029.1
20221208025829 6 32 0.0 0.0 0.00 0.00 0.00 84 1029.0
20221208025342 6 32 0.0 0.0 0.00 0.00 0.00 84 1029.2
20221208024825 7 48 0.0 0.0 0.00 0.00 0.00 83 1029.3
20221208024326 7 74 0.0 0.0 0.00 0.00 0.00 84 1029.3
20221208023818 8 78 0.0 0.0 0.00 0.00 0.00 85 1029.6
20221208023331 8 78 0.0 0.0 0.00 0.00 0.00 85 1029.6
20221208022831 8 78 0.0 0.0 0.00 0.00 0.00 85 1029.8
20221208022344 8 78 0.0 0.0 0.00 0.00 0.00 85 1029.8
20221208021828 9 78 0.0 0.0 0.00 0.00 0.00 84 1029.8
20221208021328 9 78 0.0 0.0 0.00 0.00 0.00 84 1029.7
20221208020842 9 78 0.0 0.0 0.00 0.00 0.00 84 1029.7
20221208020327 9 78 0.0 0.0 0.00 0.00 0.00 83 1029.5
20221208015849 9 78 0.0 0.0 0.00 0.00 0.00 83 1029.5
20221208015343 9 78 0.0 0.0 0.00 0.00 0.00 83 1029.5
20221208014829 9 78 0.0 0.0 0.00 0.00 0.00 83 1029.4
20221208014329 9 78 0.0 0.0 0.00 0.00 0.00 83 1029.3
20221208013842 9 78 0.0 0.0 0.00 0.00 0.00 82 1029.2
20221208013325 9 78 0.0 0.0 0.00 0.00 0.00 82 1029.1
20221208012835 9 78 0.0 0.0 0.00 0.00 0.00 82 1029.2
20221208012319 10 78 0.0 0.0 0.00 0.00 0.00 82 1029.3
20221208011832 10 78 0.0 0.0 0.00 0.00 0.00 82 1029.2
20221208011333 10 78 0.0 0.0 0.00 0.00 0.00 82 1029.1
20221208010817 10 78 0.0 0.0 0.00 0.00 0.00 81 1029.1
20221208010328 10 78 0.0 0.0 0.00 0.00 0.00 81 1028.9
20221208005848 10 79 0.0 0.0 0.00 0.00 0.00 81 1028.8
20221208005319 11 79 0.0 0.0 0.00 0.00 0.00 80 1028.8
20221208004829 11 79 0.0 0.0 0.00 0.00 0.00 79 1028.8
20221208004330 11 79 0.0 0.0 0.00 0.00 0.00 79 1029.0
20221208003844 11 79 0.0 0.0 0.00 0.00 0.00 79 1028.9
20221208003328 11 79 0.0 0.0 0.00 0.00 0.00 79 1028.8
20221208002829 11 79 0.0 0.0 0.00 0.00 0.00 79 1028.8
20221208002341 11 79 0.0 0.0 0.00 0.00 0.00 79 1028.9
20221208001825 11 79 0.0 0.0 0.00 0.00 0.00 78 1028.9
20221208001347 11 79 0.0 0.0 0.00 0.00 0.00 78 1028.8
20221208000830 12 79 0.0 0.0 0.00 0.00 0.00 77 1028.7
20221208000323 12 78 0.0 0.0 0.00 0.00 0.00 77 1028.7
20221207235822 12 78 0.0 0.0 0.00 0.00 0.00 77 1028.7
20221207235335 12 78 0.0 0.0 0.00 0.00 0.00 77 1028.7
20221207234820 12 78 0.0 0.0 0.00 0.00 0.00 77 1028.6
20221207234320 13 79 0.0 0.0 0.00 0.00 0.00 76 1028.8
20221207233853 13 78 0.0 0.0 0.00 0.00 0.00 76 1028.8
20221207233316 13 78 0.0 0.0 0.00 0.00 0.00 76 1028.7
20221207232841 13 78 0.0 0.0 0.00 0.00 0.00 76 1028.6
20221207232326 13 76 0.0 0.0 0.00 0.00 0.00 75 1028.7
20221207231819 13 76 0.0 0.0 0.00 0.00 0.00 75 1028.5
20221207231320 13 49 0.0 0.0 0.00 0.00 0.00 75 1028.5
20221207230822 14 49 0.0 0.0 0.00 0.00 0.00 74 1028.5
20221207230336 14 49 0.0 0.0 0.00 0.00 0.00 74 1028.5
20221207225816 14 49 0.0 0.0 0.00 0.00 0.00 73 1028.4
20221207225329 14 30 0.0 0.0 0.00 0.00 0.00 73 1028.3
20221207224834 14 44 0.0 0.0 0.00 0.00 0.00 73 1028.7
20221207224334 15 53 0.0 0.0 0.00 0.00 0.00 73 1028.8
20221207223828 15 42 0.0 0.0 0.00 0.00 0.00 72 1028.9
20221207223332 15 24 0.0 0.0 0.00 0.00 0.00 72 1028.9
20221207222841 15 25 0.0 0.0 0.00 0.00 0.00 72 1028.9
20221207222326 15 24 0.0 0.0 0.00 0.00 0.00 72 1028.9
20221207221839 15 23 0.0 0.0 0.00 0.00 0.00 71 1028.9
20221207221336 16 19 0.0 0.0 0.00 0.00 0.00 71 1028.8
20221207220841 16 35 0.0 0.0 0.00 0.00 0.00 71 1028.8
20221207220329 16 26 0.0 0.0 0.00 0.00 0.00 71 1028.7
20221207215857 16 21 0.0 0.0 0.00 0.00 0.00 71 1028.8
20221207215319 16 11 0.0 0.0 0.00 0.00 0.00 71 1028.8
20221207214832 16 11 0.0 0.0 0.00 0.00 0.00 70 1028.7
20221207214332 16 26 0.0 0.0 0.00 0.00 0.00 71 1028.5
20221207213817 16 24 0.0 0.0 0.00 0.00 0.00 71 1028.5
20221207213330 16 49 0.0 0.0 0.00 0.00 0.00 71 1028.6
20221207212834 16 14 0.0 0.0 0.00 0.00 0.00 71 1028.6
20221207212317 16 24 0.0 0.0 0.00 0.00 0.00 71 1028.4
20221207211830 16 18 0.0 0.0 0.00 0.00 0.00 71 1028.3
20221207211351 16 360 0.0 0.0 0.00 0.00 0.00 71 1028.3
20221207210843 16 13 0.0 0.0 0.00 0.00 0.00 71 1028.2
20221207210327 16 34 0.0 0.0 0.00 0.00 0.00 71 1028.2
20221207205832 16 5 0.0 0.0 0.00 0.00 0.00 71 1028.4
20221207205406 16 23 0.0 0.0 0.00 0.00 0.00 71 1028.4
20221207204849 16 24 0.0 0.0 0.00 0.00 0.00 71 1028.4
20221207204331 16 28 0.0 1.0 0.00 0.00 0.00 72 1028.3
20221207203816 16 20 0.0 1.0 0.00 0.00 0.00 72 1028.2
20221207203330 16 5 0.0 1.0 0.00 0.00 0.00 72 1028.1
20221207202830 16 25 0.0 1.0 0.00 0.00 0.00 72 1027.9
20221207202344 16 18 0.0 4.0 0.00 0.00 0.00 72 1028.0
20221207201828 16 25 0.0 4.0 0.00 0.00 0.00 72 1027.9
20221207201331 16 14 0.0 2.0 0.00 0.00 0.00 72 1027.9
20221207200844 16 46 0.0 8.0 0.00 0.00 0.00 72 1027.9
20221207200330 16 342 1.0 8.0 0.00 0.00 0.00 72 1027.7
20221207195829 16 21 0.0 6.0 0.00 0.00 0.00 73 1027.8
20221207195322 16 44 1.0 6.0 0.00 0.00 0.00 72 1027.8
20221207194856 16 32 0.0 6.0 0.00 0.00 0.00 72 1027.8
20221207194332 16 20 0.0 6.0 0.00 0.00 0.00 73 1027.8
20221207193904 16 360 0.0 0.0 0.00 0.00 0.00 73 1027.9
20221207193327 16 20 0.0 4.0 0.00 0.00 0.00 73 1027.8
20221207192827 16 30 0.0 4.0 0.00 0.00 0.00 73 1027.9
20221207192319 16 37 0.0 0.0 0.00 0.00 0.00 74 1027.9
20221207191824 16 23 0.0 1.0 0.00 0.00 0.00 74 1027.9
20221207191318 16 26 0.0 6.0 0.00 0.00 0.00 74 1027.8
20221207190831 16 350 0.0 6.0 0.00 0.00 0.00 73 1027.8
20221207190324 16 5 0.0 5.0 0.00 0.00 0.00 73 1027.7
20221207185824 16 17 0.0 1.0 0.00 0.00 0.00 74 1027.7
20221207185330 16 360 0.0 1.0 0.00 0.00 0.00 73 1027.6
20221207184823 17 21 0.0 1.0 0.00 0.00 0.00 74 1027.5
20221207184341 17 355 0.0 0.0 0.00 0.00 0.00 74 1027.4
20221207183814 17 42 0.0 0.0 0.00 0.00 0.00 74 1027.4
20221207183329 16 41 0.0 1.0 0.00 0.00 0.00 75 1027.4
20221207182827 16 36 0.0 1.0 0.00 0.00 0.00 75 1027.5
20221207182321 16 15 0.0 0.0 0.00 0.00 0.00 74 1027.5
20221207181826 16 29 0.0 5.0 0.00 0.00 0.00 75 1027.5
20221207181400 16 13 0.0 5.0 0.00 0.00 0.00 75 1027.4
20221207180825 16 32 0.0 1.0 0.00 0.00 0.00 75 1027.5
20221207180321 16 20 0.0 0.0 0.00 0.00 0.00 75 1027.4
20221207175824 16 13 0.0 0.0 0.00 0.00 0.00 76 1027.6
20221207175327 16 86 0.0 0.0 0.00 0.00 0.00 76 1027.4
20221207174824 16 44 0.0 0.0 0.00 0.00 0.00 76 1027.3
20221207174328 16 51 0.0 0.0 0.00 0.00 0.00 76 1027.5
20221207173843 16 5 0.0 1.0 0.00 0.00 0.00 76 1027.5
20221207173328 16 17 0.0 5.0 0.00 0.00 0.00 77 1027.5
20221207172824 16 65 0.0 6.0 0.00 0.00 0.00 77 1027.5
20221207172317 16 49 0.0 2.0 0.00 0.00 0.00 78 1027.5
20221207171824 15 46 0.0 0.0 0.00 0.00 0.00 78 1027.6
20221207171328 15 61 0.0 2.0 0.00 0.00 0.00 77 1027.5
20221207170821 15 63 0.0 2.0 0.00 0.00 0.00 78 1027.5
20221207170328 15 39 0.0 1.0 0.00 0.00 0.00 79 1027.5
20221207165838 15 42 0.0 0.0 0.00 0.00 0.00 80 1027.6
20221207165324 15 91 0.0 0.0 0.00 0.00 0.00 80 1027.6
20221207164840 14 42 0.0 0.0 0.00 0.00 0.00 81 1027.6
20221207164342 14 11 0.0 0.0 0.00 0.00 0.00 81 1027.6
20221207163827 14 17 0.0 1.0 0.00 0.00 0.00 82 1027.4
20221207163340 14 24 0.0 1.0 0.00 0.00 0.00 82 1027.5
20221207162840 13 24 0.0 11.0 0.00 0.00 0.00 82 1027.5
20221207162333 13 13 3.0 11.0 0.00 0.00 0.00 82 1027.4
20221207161904 13 5 0.0 15.0 0.00 0.00 0.00 83 1027.3
20221207161343 13 36 2.0 15.0 0.00 0.00 0.00 83 1027.5
20221207160827 13 32 1.0 14.0 0.00 0.00 0.00 84 1027.4
20221207160322 13 360 3.0 14.0 0.00 0.00 0.00 84 1027.5
20221207155823 13 35 0.0 7.0 0.00 0.00 0.00 85 1027.5
20221207155328 13 26 1.0 11.0 0.00 0.00 0.00 85 1027.4
20221207154821 13 23 2.0 11.0 0.00 0.00 0.00 85 1027.2
20221207154323 13 11 0.0 11.0 0.00 0.00 0.00 86 1027.1
20221207153839 13 34 2.0 10.0 0.00 0.00 0.00 86 1026.8
20221207153328 13 9 0.0 12.0 0.00 0.00 0.00 86 1026.7
20221207152848 13 13 2.0 12.0 0.00 0.00 0.00 86 1026.7
20221207152324 14 19 0.0 12.0 0.00 0.00 0.00 86 1026.7
20221207151831 14 39 2.0 15.0 0.00 0.00 0.00 86 1026.7
20221207151315 14 5 1.0 15.0 0.00 0.00 0.00 85 1026.7
20221207150832 14 5 1.0 15.0 0.00 0.00 0.00 86 1026.3
20221207150349 14 13 1.0 14.0 0.00 0.00 0.00 85 1026.4
20221207145825 14 17 5.0 12.0 0.00 0.00 0.00 86 1026.2
20221207145341 15 5 0.0 10.0 0.00 0.00 0.00 86 1025.9
20221207144330 15 20 6.0 14.0 0.00 0.00 0.00 86 1025.8
20221207143817 15 347 0.0 2.0 0.00 0.00 0.00 86 1025.5
20221207143314 15 9 0.0 15.0 0.00 0.00 0.00 86 1025.5
20221207142837 15 355 4.0 15.0 0.00 0.00 0.00 86 1025.4
20221207142328 15 5 1.0 7.0 0.00 0.00 0.00 87 1025.4
20221207141844 15 27 1.0 7.0 0.00 0.00 0.00 86 1025.1
20221207141330 15 355 1.0 10.0 0.00 0.00 0.00 86 1025.0
20221207140817 16 14 1.0 11.0 0.00 0.00 0.00 86 1024.9
20221207140313 16 360 0.0 11.0 0.00 0.00 0.00 86 1024.8
20221207135816 16 355 0.0 0.0 0.00 0.00 0.00 86 1024.6
20221207135324 16 355 0.0 1.0 0.00 0.00 0.00 86 1024.6
20221207134820 16 32 0.0 6.0 0.00 0.00 0.00 86 1024.3
20221207134323 16 24 0.0 6.0 0.00 0.00 0.00 85 1024.2
20221207133840 16 5 0.0 5.0 0.00 0.00 0.00 85 1024.1
20221207133328 16 360 0.0 4.0 0.00 0.00 0.00 85 1024.0
20221207132824 16 348 0.0 1.0 0.00 0.00 0.00 85 1023.6
20221207132321 16 23 0.0 0.0 0.00 0.00 0.00 84 1023.4
20221207131858 16 43 0.0 1.0 0.00 0.00 0.00 84 1023.2
20221207131341 17 32 0.0 1.0 0.00 0.00 0.00 83 1023.1
20221207130840 17 36 0.0 4.0 0.00 0.00 0.00 82 1023.1
20221207130327 17 9 0.0 7.0 0.00 0.00 0.00 80 1023.1
20221207125822 17 20 0.0 7.0 0.00 0.00 0.00 79 1023.1
20221207125320 17 46 0.0 7.0 0.00 0.00 0.00 77 1023.3
20221207124823 17 12 0.0 2.0 0.00 0.00 0.00 77 1023.3
20221207124321 17 36 0.0 1.0 0.00 0.00 0.00 77 1023.2
20221207123817 17 19 0.0 7.0 0.00 0.00 0.00 77 1022.8
20221207123334 17 32 1.0 9.0 0.00 0.00 0.00 76 1022.7
20221207122837 17 24 1.0 13.0 0.00 0.00 0.00 76 1022.6
20221207122324 17 44 3.0 10.0 0.00 0.00 0.00 76 1022.3
20221207121819 17 38 0.0 12.0 0.00 0.00 0.00 76 1022.2
20221207121322 17 36 1.0 12.0 0.00 0.00 0.00 76 1022.1
20221207120839 17 26 0.0 8.0 0.00 0.00 0.00 76 1022.2
20221207120324 18 33 2.0 10.0 0.00 0.00 0.00 76 1022.1
20221207115820 17 11 0.0 2.0 0.00 0.00 0.00 76 1022.0
20221207115337 17 9 0.0 2.0 0.00 0.00 0.00 76 1022.0
20221207114825 17 28 0.0 2.0 0.00 0.00 0.00 76 1021.7
20221207114323 18 32 0.0 2.0 0.00 0.00 0.00 76 1021.7
20221207113820 18 40 0.0 2.0 0.00 0.00 0.00 76 1021.7
20221207113338 18 17 0.0 1.0 0.00 0.00 0.00 76 1021.6
20221207112842 18 57 0.0 7.0 0.00 0.00 0.00 76 1021.6
20221207112328 18 38 0.0 6.0 0.00 0.00 0.00 76 1021.4
20221207111826 18 38 0.0 6.0 0.00 0.00 0.00 76 1021.5
20221207111326 18 30 0.0 0.0 0.00 0.00 0.00 76 1021.5
20221207110813 18 63 0.0 0.0 0.00 0.00 0.00 76 1021.5
20221207110331 18 21 0.0 0.0 0.00 0.00 0.00 76 1021.6
20221207105815 18 54 0.0 0.0 0.00 0.00 0.00 76 1021.7
20221207105323 18 54 0.0 1.0 0.00 0.00 0.00 76 1021.9
20221207104819 18 30 0.0 1.0 0.00 0.00 0.00 76 1021.8
20221207104322 18 36 0.0 5.0 0.00 0.00 0.00 76 1021.7
20221207103818 18 15 0.0 4.0 0.00 0.00 0.00 76 1021.6
20221207103326 18 24 1.0 4.0 0.00 0.00 0.00 76 1021.6
20221207102828 18 10 0.0 8.0 0.00 0.00 0.00 76 1021.7
20221207102315 18 42 1.0 8.0 0.00 0.00 0.00 76 1021.5
20221207101832 18 20 0.0 8.0 0.00 0.00 0.00 76 1021.4
20221207101315 18 5 0.0 0.0 0.00 0.00 0.00 76 1021.5
20221207100822 18 22 0.0 0.0 0.00 0.00 0.00 76 1021.4
20221207100318 18 51 0.0 0.0 0.00 0.00 0.00 76 1021.5
20221207095822 18 5 0.0 0.0 0.00 0.00 0.00 76 1021.4
20221207095338 18 9 0.0 0.0 0.00 0.00 0.00 76 1021.3
20221207094825 18 19 0.0 0.0 0.00 0.00 0.00 76 1021.3
20221207094323 18 40 0.0 0.0 0.00 0.00 0.00 76 1021.3
20221207093819 18 13 0.0 0.0 0.00 0.00 0.00 76 1021.1
20221207093323 18 34 0.0 0.0 0.00 0.00 0.00 76 1020.9
20221207092855 18 15 0.0 0.0 0.00 0.00 0.00 75 1020.9
20221207092321 18 22 0.0 0.0 0.00 0.00 0.00 75 1020.8
20221207091819 18 34 0.0 0.0 0.00 0.00 0.00 75 1020.6
20221207091342 18 20 0.0 0.0 0.00 0.00 0.00 75 1020.6
20221207090816 18 15 0.0 0.0 0.00 0.00 0.00 75 1020.5
20221207090324 19 28 0.0 0.0 0.00 0.00 0.00 75 1020.5
20221207085828 19 33 0.0 4.0 0.00 0.00 0.00 75 1020.5
20221207085316 19 52 0.0 10.0 0.00 0.00 0.00 75 1020.3
20221207084832 19 37 0.0 5.0 0.00 0.00 0.00 75 1020.3
20221207084336 19 37 0.0 5.0 0.00 0.00 0.00 75 1020.3
20221207083823 19 23 0.0 1.0 0.00 0.00 0.00 75 1020.2
20221207083321 19 34 0.0 2.0 0.00 0.00 0.00 75 1020.2
20221207082822 19 13 0.0 2.0 0.00 0.00 0.00 75 1019.9
20221207082338 20 40 0.0 9.0 0.00 0.00 0.00 75 1019.8
20221207081821 20 9 2.0 15.0 0.00 0.00 0.00 75 1019.7
20221207081325 20 65 5.0 15.0 0.00 0.00 0.00 75 1019.8
20221207080821 20 17 4.0 15.0 0.00 0.00 0.00 75 1019.6
20221207080338 20 22 0.0 13.0 0.00 0.00 0.00 75 1019.6
20221207075820 20 15 0.0 13.0 0.00 0.00 0.00 75 1019.6
20221207075328 21 17 3.0 9.0 0.00 0.00 0.00 75 1019.5
20221207074824 21 18 1.0 11.0 0.00 0.00 0.00 75 1019.4
20221207074321 21 25 4.0 11.0 0.00 0.00 0.00 75 1019.5
20221207073838 21 22 1.0 12.0 0.00 0.00 0.00 75 1019.4
20221207073325 21 5 2.0 14.0 0.00 0.00 0.00 75 1019.4
20221207072822 21 13 1.0 6.0 0.00 0.00 0.00 75 1019.4
20221207072318 21 5 0.0 9.0 0.00 0.00 0.00 75 1019.1
20221207071826 21 9 1.0 11.0 0.00 0.00 0.00 75 1019.1
20221207071339 22 5 1.0 11.0 0.00 0.00 0.00 76 1019.0
20221207070847 22 5 0.0 8.0 0.00 0.00 0.00 76 1019.0
20221207070322 22 9 0.0 8.0 0.00 0.00 0.00 76 1019.0
20221207065824 22 9 0.0 6.0 0.00 0.00 0.00 76 1019.1
20221207065336 22 355 0.0 0.0 0.00 0.00 0.00 76 1019.1
20221207064824 22 10 0.0 1.0 0.00 0.00 0.00 76 1018.9
20221207064328 22 10 0.0 0.0 0.00 0.00 0.00 77 1018.9
20221207063843 22 5 0.0 0.0 0.00 0.00 0.00 77 1018.7
20221207063339 22 11 0.0 0.0 0.00 0.00 0.00 77 1018.5
20221207062840 22 21 0.0 0.0 0.00 0.00 0.00 77 1018.3